Regional Weather Roundup
Issued by NWS Upton, NY

Home | Current Version | Previous Version | Text Only | Print | Product List | Glossary On
Versions: 1 2 3 4 5 6 7 8 9 10 11 12 13 14 15 16 17 18 19 20 21 22 23 24 25 26 27 28 29 30 31 32 33 34 35 36 37 38 39 40 41 42 43 44 45 46 47 48 49
000
ASUS41 KOKX 120905
RWROKX

REGIONAL WEATHER ROUNDUP
NATIONAL WEATHER SERVICE NEW YORK NY
500 AM EDT SAT JUL 12 2014

NOTE: "FAIR" INDICATES FEW OR NO CLOUDS BELOW 12,000 FEET WITH NO
SIGNIFICANT WEATHER AND/OR OBSTRUCTIONS TO VISIBILITY.

NYZ071-072-176-178-NJZ106-104-121000-
NEW YORK CITY METRO AREA


CITY           SKY/WX    TMP DP  RH WIND       PRES   REMARKS
CENTRAL PARK   MOCLDY    72  61  68 CALM      30.24S
LAGUARDIA APRT MOCLDY    72  64  76 SE3       30.21R
KENNEDY INTL   MOCLDY    67  65  93 SE3       30.23R
NEWARK/LIBERTY MOCLDY    71  65  81 CALM      30.22R
BRNX BOT. GARD   N/A     66  63  88 N2        30.24R
TETERBORO      CLEAR     69  64  84 CALM      30.21R
$$

NYZ177-179-078>081-121000-
LONG ISLAND NEW YORK

CITY           SKY/WX    TMP DP  RH WIND       PRES   REMARKS
FARMINGDALE    CLEAR     64  63  96 CALM      30.23R
ISLIP          CLEAR     63  59  87 CALM      30.21S
SHIRLEY        CLEAR     59  57  93 CALM      30.24R
WESTHAMPTON    CLEAR     55  52  89 CALM      30.25S
MONTAUK POINT    N/A     62  58  86 CALM      30.24S
$$

NYZ052-065-067-121000-
HUDSON VALLEY

CITY           SKY/WX    TMP DP  RH WIND       PRES   REMARKS
WHITE PLAINS   CLEAR     63  60  90 CALM      30.22S
NEWBURGH       CLEAR     63  61  94 CALM      30.23S
MONTGOMERY     CLEAR     60  59  96 CALM      30.22S
POUGHKEEPSIE   PTCLDY    62  59  90 CALM      30.21S
ALBANY         PTCLDY    59  56  89 CALM      30.22R
$$

NJZ001-105-106-008-010-013-015-019>022-104-121000-
NEW JERSEY

CITY           SKY/WX    TMP DP  RH WIND       PRES   REMARKS
NEWARK/LIBERTY MOCLDY    71  65  81 CALM      30.22R
TETERBORO      CLEAR     69  64  84 CALM      30.21R
CALDWELL       CLEAR     65  63  93 CALM      30.23R
MORRISTOWN     FOG       63  59  88 CALM      30.23R VSB 3/4
SOMERVILLE     CLEAR     63  60  90 CALM      30.21R
LINDEN         PTSUNNY   71  66  84 CALM      30.24R
SUSSEX         PTCLDY    62  59  90 CALM      30.23R
ANDOVER          N/A     62  61  96 CALM      30.24R
TRENTON        CLEAR     67  62  84 CALM      30.22R
MILLVILLE      FOG       66  66 100 CALM      30.22S VSB 1/4
ATLANTIC CITY  CLOUDY    66  65  96 SW3       30.22S
WRIGHTSTOWN    CLEAR     64  64  99 CALM      30.21R
TOMS RIVER     PTCLDY    64  63  94 CALM      30.23R
BELMAR         MOCLDY    66  63  88 CALM      30.23R
$$

PAZ047>061-062-071-121000-
EASTERN PENNSYLVANIA

CITY           SKY/WX    TMP DP  RH WIND       PRES   REMARKS
PHILADELPHIA   PTCLDY    71  62  73 S3        30.22S
ALLENTOWN      MOCLDY    65  63  93 CALM      30.23R FOG
SCRANTON       CLEAR     64  60  87 E5        30.22S
$$

CTZ002-004>006-009-010-012-RIZ004-006-007-MAZ004-011-015-121000-
SOUTHERN NEW ENGLAND
 IN CT

CITY           SKY/WX    TMP DP  RH WIND       PRES   REMARKS
BRADLEY INTL   PTCLDY    59  55  87 CALM      30.21S
HARTFORD       CLEAR     65  61  87 S3        30.22R
DANBURY        CLEAR     60  57  89 CALM      30.24S
WTRBRY/OXFORD  CLEAR     61  55  82 CALM      30.25S
BRIDGEPORT     CLEAR     69  65  86 CALM      30.22S
MERIDEN        CLEAR     61  59  93 CALM      30.22S
NEW HAVEN      CLEAR     65  60  84 CALM      30.22F
CHESTER        FAIR      64  61  88 S3        30.24S
GROTON         MOCLDY    60  60 100 CALM      30.22S
WILLIMANTIC    CLEAR     59  56  89 CALM      30.23S

 IN RI

CITY           SKY/WX    TMP DP  RH WIND       PRES   REMARKS
PROVIDENCE     NOT AVBL
BLOCK ISLAND   PTCLDY    64  59  82 W3        30.23S
WESTERLY       PTCLDY    58  56  93 CALM      30.23S

 IN MA

CITY           SKY/WX    TMP DP  RH WIND       PRES   REMARKS
BOSTON         CLEAR     64  57  78 SW7       30.21R
WORCESTER      CLEAR     62  58  86 W8        30.24R
WESTFIELD      NOT AVBL
PROVINCETOWN   CLEAR     57  55  94 S3        30.23R
NANTUCKET      MOCLDY    60  58  92 CALM      30.22R
$$

ANZ330-335-338-340-345-350-353-355-121000-
COASTAL MARINE OBSERVATIONS


STATION/POSITION TIME  SKY/WX   TEMP    WIND        PRES    VSBY  WAVE
                                AIR SEA DIR/SP/G                  HT/PER
                 (UTC)          (F)     (DEG/KT/KT) (MB)    (MI)  (FT/S)
NY HARB ENTRANCE NOT AVBL
4S FIRE IS       0800               70                N/A           2/ 7
23SW MTP         0900            65 66              1023.3          2/ 6
HUDSON CANYON    0900            69 70   10/  4/  6 1023.2          2/ 7
EXECUTION ROCKS  0900            67 66   80/  2/  4   N/A
WESTERN LI SOUND 0900            69     170/  2/  2   N/A           0
CENTRAL LI SOUND 0800            70 71  220/  4/  4   N/A           0
EASTERN LI SOUND 0800            64 65     CALM       N/A
ROBBINS REEF     0900            68     170/  9/  9   N/A
$$


>>>>>>>>>>>>>>>>>>>>>>>>>>>> KEY <<<<<<<<<<<<<<<<<<<<<<<<<<<
>                                                          <
>     SKY/WX - SKY CONDITION/PRESENT WEATHER               <
>     TMP    - TEMPERATURE IN FAHRENHEIT                   <
>     DP     - DEWPOINT IN FAHRENHEIT                      <
>     RH     - RELATIVE HUMIDITY IN PERCENT                <
>     WIND   - DIRECTION AND SPEED IN MPH                  <
>     PRES   - MEAN SEA LEVEL PRESSURE IN INCHES OF HG     <
>     WCI    - WIND CHILL INDEX                            <
>     VSB    - VISIBILITY IN MILES                         <
>     HX     - HEAT INDEX                                  <
>     TC     - TEMPERATURE IN CELSIUS                      <
>     VRB    - VARIABLE WIND DIRECTION                     <
>                                                          <
>>>>>>>>>>>>>>>>>>>>>>>>>>>> KEY <<<<<<<<<<<<<<<<<<<<<<<<<<<




USA.gov is the U.S. government's official web portal to all federal, state and local government web resources and services.